Ogdensburg, NY
on Thursday, December 7, 2017

Thursday
       
Previous Day Next Day
Daily Summary
 ActualAverageRecord
Temperature
Mean Temperature °F °C °F °C  
Max Temperature 36°F 2°C 34°F 1°C 64°F 17°C (1998)
Min Temperature 30°F -1°C 19°F -7°C -14°F -25°C (1964)
Degree Days
Heating Degree Days 32    
Moisture
Dew Point 22°F -6°C   
Average Humidity 63    
Maximum Humidity 72    
Minimum Humidity 51    
Precipitation
Precipitation 0.00 in / 0.00 cm in / cm in / cm ()
Wind
Wind Speed 9 mph / 14 km/h   
Max Wind Speed 13 mph / 21 km/h   
Max Gust Speed 22 mph / 35 km/h   
Visibility 10 miles / 16 kilometers   
Events     
Averages and records for this station are not official NWS values.
Key: T is trace of precipitation, MM is missing value
Source: NWS Daily Summary
Seasonal Weather Averages
Time(EST)TemperatureDew PointHumidity Pressure Visibility Wind DirectionWind SpeedGust SpeedPrecipitationEvents Conditions
12:15 AM 35.2°F 1.8°C 25.5°F -3.6°C 68% 29.78 in / 1008.4 hPa 10.0 miles / 16.1 kilometers West 10.4 mph / 16.7 km/h 19.6 mph / 31.5 km/h N/A   Scattered Clouds
12:35 AM 35.1°F 1.7°C 25.0°F -3.9°C 67% 29.78 in / 1008.4 hPa 10.0 miles / 16.1 kilometers West 9.2 mph / 14.8 km/h 18.4 mph / 29.6 km/h N/A   Scattered Clouds
12:55 AM 35.1°F 1.7°C 24.1°F -4.4°C 64% 29.79 in / 1008.7 hPa 10.0 miles / 16.1 kilometers WSW 10.4 mph / 16.7 km/h 19.6 mph / 31.5 km/h N/A   Scattered Clouds
1:15 AM 34.7°F 1.5°C 24.3°F -4.3°C 66% 29.79 in / 1008.7 hPa 10.0 miles / 16.1 kilometers West 9.2 mph / 14.8 km/h 18.4 mph / 29.6 km/h N/A   Mostly Cloudy
1:35 AM 34.5°F 1.4°C 24.3°F -4.3°C 66% 29.80 in / 1009.0 hPa 10.0 miles / 16.1 kilometers West 10.4 mph / 16.7 km/h - N/A   Mostly Cloudy
1:55 AM 34.0°F 1.1°C 23.5°F -4.7°C 66% 29.81 in / 1009.4 hPa 10.0 miles / 16.1 kilometers West 8.1 mph / 13.0 km/h - N/A   Mostly Cloudy
2:15 AM 33.8°F 1.0°C 23.5°F -4.7°C 66% 29.82 in / 1009.7 hPa 10.0 miles / 16.1 kilometers WSW 8.1 mph / 13.0 km/h 17.3 mph / 27.8 km/h N/A   Scattered Clouds
2:35 AM 33.8°F 1.0°C 24.4°F -4.2°C 69% 29.82 in / 1009.7 hPa 10.0 miles / 16.1 kilometers WSW 6.9 mph / 11.1 km/h - N/A   Scattered Clouds
2:55 AM 33.8°F 1.0°C 23.7°F -4.6°C 67% 29.82 in / 1009.7 hPa 10.0 miles / 16.1 kilometers WSW 8.1 mph / 13.0 km/h - N/A   Mostly Cloudy
3:15 AM 33.8°F 1.0°C 23.2°F -4.9°C 65% 29.82 in / 1009.7 hPa 10.0 miles / 16.1 kilometers West 10.4 mph / 16.7 km/h 21.9 mph / 35.2 km/h N/A   Overcast
3:35 AM 33.8°F 1.0°C 23.9°F -4.5°C 67% 29.83 in / 1010.0 hPa 10.0 miles / 16.1 kilometers WSW 8.1 mph / 13.0 km/h 18.4 mph / 29.6 km/h N/A   Overcast
3:55 AM 33.1°F 0.6°C 23.0°F -5.0°C 66% 29.83 in / 1010.0 hPa 10.0 miles / 16.1 kilometers WSW 9.2 mph / 14.8 km/h 18.4 mph / 29.6 km/h N/A   Mostly Cloudy
4:15 AM 32.0°F 0.0°C 23.0°F -5.0°C 69% 29.84 in / 1010.4 hPa 10.0 miles / 16.1 kilometers WSW 9.2 mph / 14.8 km/h 17.3 mph / 27.8 km/h N/A   Scattered Clouds
4:35 AM 32.0°F 0.0°C 23.0°F -5.0°C 69% 29.84 in / 1010.4 hPa 10.0 miles / 16.1 kilometers WSW 8.1 mph / 13.0 km/h 17.3 mph / 27.8 km/h N/A   Clear
4:55 AM 32.0°F 0.0°C 22.6°F -5.2°C 68% 29.84 in / 1010.4 hPa 10.0 miles / 16.1 kilometers WSW 11.5 mph / 18.5 km/h 19.6 mph / 31.5 km/h N/A   Clear
5:15 AM 31.8°F -0.1°C 22.3°F -5.4°C 68% 29.84 in / 1010.4 hPa 10.0 miles / 16.1 kilometers WSW 9.2 mph / 14.8 km/h - N/A   Scattered Clouds
5:35 AM 31.3°F -0.4°C 22.1°F -5.5°C 69% 29.84 in / 1010.4 hPa 10.0 miles / 16.1 kilometers West 8.1 mph / 13.0 km/h - N/A   Scattered Clouds
5:55 AM 31.5°F -0.3°C 22.6°F -5.2°C 70% 29.84 in / 1010.4 hPa 10.0 miles / 16.1 kilometers West 10.4 mph / 16.7 km/h - N/A   Scattered Clouds
6:15 AM 31.6°F -0.2°C 22.6°F -5.2°C 69% 29.85 in / 1010.7 hPa 10.0 miles / 16.1 kilometers WSW 8.1 mph / 13.0 km/h - N/A   Mostly Cloudy
6:35 AM 31.6°F -0.2°C 22.5°F -5.3°C 69% 29.85 in / 1010.7 hPa 10.0 miles / 16.1 kilometers WSW 8.1 mph / 13.0 km/h - N/A   Mostly Cloudy
6:55 AM 31.5°F -0.3°C 22.5°F -5.3°C 69% 29.86 in / 1011.1 hPa 10.0 miles / 16.1 kilometers WSW 5.8 mph / 9.3 km/h - N/A   Scattered Clouds
7:15 AM 31.5°F -0.3°C 22.1°F -5.5°C 68% 29.86 in / 1011.1 hPa 10.0 miles / 16.1 kilometers WSW 9.2 mph / 14.8 km/h - N/A   Scattered Clouds
7:35 AM 31.1°F -0.5°C 22.1°F -5.5°C 69% 29.86 in / 1011.1 hPa 10.0 miles / 16.1 kilometers WSW 6.9 mph / 11.1 km/h - N/A   Scattered Clouds
7:55 AM 31.1°F -0.5°C 22.5°F -5.3°C 70% 29.86 in / 1011.1 hPa 10.0 miles / 16.1 kilometers WSW 6.9 mph / 11.1 km/h - N/A   Scattered Clouds
8:15 AM 31.1°F -0.5°C 22.6°F -5.2°C 71% 29.86 in / 1011.1 hPa 10.0 miles / 16.1 kilometers SW 8.1 mph / 13.0 km/h - N/A   Scattered Clouds
8:35 AM 32.0°F 0.0°C 22.8°F -5.1°C 69% 29.87 in / 1011.4 hPa 10.0 miles / 16.1 kilometers WSW 6.9 mph / 11.1 km/h - N/A   Clear
8:55 AM 33.8°F 1.0°C 23.2°F -4.9°C 65% 29.86 in / 1011.1 hPa 10.0 miles / 16.1 kilometers SW 8.1 mph / 13.0 km/h - N/A   Clear
9:15 AM 33.8°F 1.0°C 22.6°F -5.2°C 64% 29.87 in / 1011.4 hPa 10.0 miles / 16.1 kilometers WSW 5.8 mph / 9.3 km/h - N/A   Clear
9:35 AM 33.8°F 1.0°C 23.0°F -5.0°C 65% 29.87 in / 1011.4 hPa 10.0 miles / 16.1 kilometers WSW 8.1 mph / 13.0 km/h - N/A   Clear
9:55 AM 33.3°F 0.7°C 22.5°F -5.3°C 65% 29.87 in / 1011.4 hPa 10.0 miles / 16.1 kilometers WSW 5.8 mph / 9.3 km/h - N/A   Clear
10:15 AM 33.3°F 0.7°C 22.3°F -5.4°C 64% 29.87 in / 1011.4 hPa 10.0 miles / 16.1 kilometers WSW 9.2 mph / 14.8 km/h - N/A   Scattered Clouds
10:35 AM 34.7°F 1.5°C 21.4°F -5.9°C 58% 29.86 in / 1011.1 hPa 10.0 miles / 16.1 kilometers WSW 8.1 mph / 13.0 km/h - N/A   Scattered Clouds
10:55 AM 34.7°F 1.5°C 20.3°F -6.5°C 56% 29.86 in / 1011.1 hPa 10.0 miles / 16.1 kilometers WSW 10.4 mph / 16.7 km/h - N/A   Clear
11:15 AM 34.7°F 1.5°C 21.0°F -6.1°C 57% - / - 10.0 miles / 16.1 kilometers WSW 8.1 mph / 13.0 km/h - N/A   Clear
11:35 AM 34.9°F 1.6°C 21.0°F -6.1°C 57% 29.84 in / 1010.4 hPa 10.0 miles / 16.1 kilometers WSW 8.1 mph / 13.0 km/h - N/A   Clear
11:55 AM 35.2°F 1.8°C 19.9°F -6.7°C 54% 29.84 in / 1010.4 hPa 10.0 miles / 16.1 kilometers SW 8.1 mph / 13.0 km/h - N/A   Clear
12:15 PM 35.6°F 2.0°C 20.3°F -6.5°C 54% 29.83 in / 1010.0 hPa 10.0 miles / 16.1 kilometers WSW 6.9 mph / 11.1 km/h 16.1 mph / 25.9 km/h N/A   Clear
12:35 PM 36.5°F 2.5°C 20.7°F -6.3°C 53% 29.82 in / 1009.7 hPa 10.0 miles / 16.1 kilometers WSW 8.1 mph / 13.0 km/h 17.3 mph / 27.8 km/h N/A   Clear
12:55 PM 36.0°F 2.2°C 20.1°F -6.6°C 53% 29.82 in / 1009.7 hPa 10.0 miles / 16.1 kilometers WSW 8.1 mph / 13.0 km/h 16.1 mph / 25.9 km/h N/A   Clear
1:15 PM 35.6°F 2.0°C 19.0°F -7.2°C 51% 29.81 in / 1009.4 hPa 10.0 miles / 16.1 kilometers SW 11.5 mph / 18.5 km/h 16.1 mph / 25.9 km/h N/A   Clear
1:35 PM 35.8°F 2.1°C 19.0°F -7.2°C 51% 29.81 in / 1009.4 hPa 10.0 miles / 16.1 kilometers WSW 8.1 mph / 13.0 km/h 17.3 mph / 27.8 km/h N/A   Clear
1:55 PM 35.8°F 2.1°C 19.4°F -7.0°C 51% 29.80 in / 1009.0 hPa 10.0 miles / 16.1 kilometers WSW 8.1 mph / 13.0 km/h - N/A   Clear
2:15 PM 35.8°F 2.1°C 19.2°F -7.1°C 51% 29.80 in / 1009.0 hPa 10.0 miles / 16.1 kilometers WSW 9.2 mph / 14.8 km/h 19.6 mph / 31.5 km/h N/A   Scattered Clouds
2:35 PM 36.0°F 2.2°C 19.4°F -7.0°C 51% 29.80 in / 1009.0 hPa 10.0 miles / 16.1 kilometers SW 10.4 mph / 16.7 km/h 16.1 mph / 25.9 km/h N/A   Clear
2:55 PM 35.6°F 2.0°C 19.4°F -7.0°C 52% 29.79 in / 1008.7 hPa 10.0 miles / 16.1 kilometers WSW 8.1 mph / 13.0 km/h 18.4 mph / 29.6 km/h N/A   Clear
3:15 PM 35.6°F 2.0°C 20.1°F -6.6°C 53% 29.80 in / 1009.0 hPa 10.0 miles / 16.1 kilometers SW 6.9 mph / 11.1 km/h - N/A   Scattered Clouds
3:35 PM 35.6°F 2.0°C 20.3°F -6.5°C 54% 29.80 in / 1009.0 hPa 10.0 miles / 16.1 kilometers WSW 10.4 mph / 16.7 km/h 17.3 mph / 27.8 km/h N/A   Scattered Clouds
3:55 PM 35.8°F 2.1°C 19.4°F -7.0°C 51% 29.80 in / 1009.0 hPa 10.0 miles / 16.1 kilometers WSW 11.5 mph / 18.5 km/h 17.3 mph / 27.8 km/h N/A   Scattered Clouds
4:15 PM 34.9°F 1.6°C 20.3°F -6.5°C 55% 29.80 in / 1009.0 hPa 10.0 miles / 16.1 kilometers SW 8.1 mph / 13.0 km/h 16.1 mph / 25.9 km/h N/A   Scattered Clouds
4:35 PM 33.8°F 1.0°C 20.5°F -6.4°C 58% 29.80 in / 1009.0 hPa 10.0 miles / 16.1 kilometers SW 12.7 mph / 20.4 km/h 21.9 mph / 35.2 km/h N/A   Clear
4:55 PM 33.8°F 1.0°C 20.8°F -6.2°C 59% 29.81 in / 1009.4 hPa 10.0 miles / 16.1 kilometers SW 9.2 mph / 14.8 km/h 20.7 mph / 33.3 km/h N/A   Scattered Clouds
5:15 PM 33.8°F 1.0°C 20.3°F -6.5°C 58% 29.81 in / 1009.4 hPa 10.0 miles / 16.1 kilometers WSW 9.2 mph / 14.8 km/h 16.1 mph / 25.9 km/h N/A   Scattered Clouds
5:35 PM 33.6°F 0.9°C 19.9°F -6.7°C 57% 29.82 in / 1009.7 hPa 10.0 miles / 16.1 kilometers WSW 10.4 mph / 16.7 km/h 17.3 mph / 27.8 km/h N/A   Scattered Clouds
5:55 PM 33.1°F 0.6°C 20.1°F -6.6°C 59% 29.83 in / 1010.0 hPa 10.0 miles / 16.1 kilometers WSW 8.1 mph / 13.0 km/h - N/A   Scattered Clouds
6:15 PM 32.9°F 0.5°C 20.3°F -6.5°C 60% 29.83 in / 1010.0 hPa 10.0 miles / 16.1 kilometers WSW 9.2 mph / 14.8 km/h 16.1 mph / 25.9 km/h N/A   Scattered Clouds
6:35 PM 32.9°F 0.5°C 21.0°F -6.1°C 62% 29.83 in / 1010.0 hPa 10.0 miles / 16.1 kilometers SW 6.9 mph / 11.1 km/h - N/A   Clear
6:55 PM 32.9°F 0.5°C 22.1°F -5.5°C 65% 29.83 in / 1010.0 hPa 10.0 miles / 16.1 kilometers WSW 8.1 mph / 13.0 km/h - N/A   Clear
7:15 PM 32.5°F 0.3°C 22.3°F -5.4°C 66% 29.84 in / 1010.4 hPa 10.0 miles / 16.1 kilometers WSW 9.2 mph / 14.8 km/h - N/A   Clear
7:35 PM 32.7°F 0.4°C 22.1°F -5.5°C 65% 29.84 in / 1010.4 hPa 10.0 miles / 16.1 kilometers WSW 10.4 mph / 16.7 km/h 19.6 mph / 31.5 km/h N/A   Clear
7:55 PM 32.2°F 0.1°C 22.1°F -5.5°C 66% 29.84 in / 1010.4 hPa 10.0 miles / 16.1 kilometers WSW 8.1 mph / 13.0 km/h - N/A   Clear
8:15 PM 32.0°F 0.0°C 22.1°F -5.5°C 67% 29.84 in / 1010.4 hPa 10.0 miles / 16.1 kilometers WSW 8.1 mph / 13.0 km/h 17.3 mph / 27.8 km/h N/A   Clear
8:35 PM 32.0°F 0.0°C 22.1°F -5.5°C 67% 29.85 in / 1010.7 hPa 10.0 miles / 16.1 kilometers WSW 9.2 mph / 14.8 km/h - N/A   Clear
8:55 PM 31.5°F -0.3°C 22.1°F -5.5°C 68% 29.86 in / 1011.1 hPa 10.0 miles / 16.1 kilometers WSW 5.8 mph / 9.3 km/h - N/A   Clear
9:15 PM 31.5°F -0.3°C 22.1°F -5.5°C 68% 29.86 in / 1011.1 hPa 10.0 miles / 16.1 kilometers WSW 8.1 mph / 13.0 km/h - N/A   Clear
9:35 PM 30.9°F -0.6°C 22.1°F -5.5°C 70% 29.86 in / 1011.1 hPa 10.0 miles / 16.1 kilometers WSW 9.2 mph / 14.8 km/h - N/A   Scattered Clouds
9:55 PM 30.7°F -0.7°C 22.1°F -5.5°C 70% 29.86 in / 1011.1 hPa 10.0 miles / 16.1 kilometers WSW 8.1 mph / 13.0 km/h - N/A   Scattered Clouds
10:15 PM 30.6°F -0.8°C 22.5°F -5.3°C 72% 29.86 in / 1011.1 hPa 10.0 miles / 16.1 kilometers WSW 8.1 mph / 13.0 km/h - N/A   Clear
10:35 PM 31.1°F -0.5°C 22.5°F -5.3°C 70% 29.86 in / 1011.1 hPa 10.0 miles / 16.1 kilometers SW 5.8 mph / 9.3 km/h - N/A   Clear
10:55 PM 31.1°F -0.5°C 22.6°F -5.2°C 71% 29.87 in / 1011.4 hPa 10.0 miles / 16.1 kilometers SW 6.9 mph / 11.1 km/h - N/A   Scattered Clouds
11:15 PM 31.1°F -0.5°C 22.6°F -5.2°C 71% 29.87 in / 1011.4 hPa 10.0 miles / 16.1 kilometers WSW 9.2 mph / 14.8 km/h - N/A   Scattered Clouds
11:35 PM 30.9°F -0.6°C 22.6°F -5.2°C 71% 29.88 in / 1011.7 hPa 10.0 miles / 16.1 kilometers WSW 8.1 mph / 13.0 km/h - N/A   Scattered Clouds
11:55 PM 30.4°F -0.9°C 22.3°F -5.4°C 72% 29.87 in / 1011.4 hPa 10.0 miles / 16.1 kilometers WSW 9.2 mph / 14.8 km/h 16.1 mph / 25.9 km/h N/A   Scattered Clouds